When you browse on this site, cookies collect data to enhance your experience and personalize the content and advertising you see.
Visit our Privacy Policy to learn more. By continuing to use the site, you agree to this use of cookies and data.
  • Em Portugal
  • Lista de países
  • Para 7 dias
  • Temperatura da água
  • Mapas de satélite
  • Mapa do tempo
  • Widgets de tempo
  • user-avatar
    Iniciar Sessão

    Previsão horária em Retowo

    Hoje, 16 Janeiro, Quarta-feira

    Tempo Temperatura Precipitação Vento Pressão Humidade
    00:00 +2°C° 0 mm 8 m/s 744 mmHg 87%
    01:00 +3°C° 0 mm 6 m/s 745 mmHg 86%
    02:00 +3°C° 0.2 mm 6 m/s 745 mmHg 88%
    03:00 +3°C° 0.2 mm 6 m/s 745 mmHg 90%
    04:00 +3°C° 0.2 mm 6 m/s 746 mmHg 91%
    05:00 +3°C° 0.3 mm 5 m/s 746 mmHg 93%
    06:00 +4°C° 0.3 mm 4 m/s 746 mmHg 94%
    07:00 +4°C° 0.3 mm 3 m/s 746 mmHg 95%
    08:00 +4°C° 0.4 mm 4 m/s 746 mmHg 93%
    09:00 +3°C° 0.4 mm 5 m/s 746 mmHg 90%
    10:00 +4°C° 0.4 mm 7 m/s 747 mmHg 87%
    11:00 +4°C° 0.1 mm 6 m/s 746 mmHg 86%
    12:00 +4°C° 0.1 mm 6 m/s 746 mmHg 85%
    13:00 +4°C° 0.1 mm 6 m/s 746 mmHg 84%
    14:00 +4°C° 0.1 mm 6 m/s 746 mmHg 85%
    15:00 +4°C° 0.1 mm 6 m/s 746 mmHg 86%
    16:00 +4°C° 0.1 mm 6 m/s 746 mmHg 86%
    17:00 +4°C° 0.1 mm 6 m/s 745 mmHg 86%
    18:00 +4°C° 0.1 mm 6 m/s 745 mmHg 87%
    19:00 +4°C° 0.1 mm 7 m/s 744 mmHg 87%
    20:00 +4°C° 0.2 mm 7 m/s 744 mmHg 86%
    21:00 +4°C° 0.2 mm 7 m/s 744 mmHg 86%
    22:00 +4°C° 0.2 mm 7 m/s 743 mmHg 85%
    23:00 +3°C° 0.2 mm 7 m/s 743 mmHg 84%

    Amanhã, 17 Janeiro, Quinta-feira

    Tempo Temperatura Precipitação Vento Pressão Humidade
    00:00 +3°C° 0.2 mm 7 m/s 742 mmHg 83%
    01:00 +3°C° 0.2 mm 7 m/s 741 mmHg 82%
    02:00 +2°C° 0.4 mm 7 m/s 741 mmHg 82%
    03:00 +1°C° 0.4 mm 8 m/s 740 mmHg 81%
    04:00 +1°C° 0.4 mm 8 m/s 739 mmHg 81%
    05:00 +1°C° 0.6 mm 8 m/s 739 mmHg 80%
    06:00 +2°C° 0.6 mm 8 m/s 739 mmHg 80%
    07:00 +2°C° 0.6 mm 8 m/s 739 mmHg 80%
    08:00 +2°C° 0.1 mm 8 m/s 739 mmHg 77%
    09:00 +2°C° 0.1 mm 8 m/s 739 mmHg 75%
    10:00 +2°C° 0.1 mm 9 m/s 740 mmHg 72%
    11:00 +2°C° 0 mm 9 m/s 740 mmHg 71%
    12:00 +2°C° 0 mm 9 m/s 740 mmHg 70%
    13:00 +2°C° 0 mm 9 m/s 740 mmHg 69%
    14:00 +2°C° 0.1 mm 8 m/s 740 mmHg 70%
    15:00 +2°C° 0.1 mm 8 m/s 739 mmHg 71%
    16:00 +2°C° 0.1 mm 8 m/s 739 mmHg 72%
    17:00 +1°C° 0 mm 8 m/s 739 mmHg 72%
    18:00 +1°C° 0 mm 8 m/s 739 mmHg 72%
    19:00 +1°C° 0 mm 8 m/s 739 mmHg 72%
    20:00 0°C° 0.2 mm 8 m/s 740 mmHg 72%
    21:00 -1°C° 0.2 mm 8 m/s 740 mmHg 72%
    22:00 -1°C° 0.2 mm 9 m/s 741 mmHg 71%
    23:00 -1°C° 0.5 mm 8 m/s 741 mmHg 71%

    Depois de amanhã, 18 Janeiro, Sexta-feira

    Tempo Temperatura Precipitação Vento Pressão Humidade
    00:00 -2°C° 0.5 mm 8 m/s 742 mmHg 71%
    01:00 -2°C° 0.5 mm 8 m/s 742 mmHg 71%
    02:00 -2°C° 0.2 mm 7 m/s 743 mmHg 75%
    03:00 -2°C° 0.2 mm 6 m/s 743 mmHg 80%
    04:00 -1°C° 0.2 mm 5 m/s 744 mmHg 84%
    05:00 -3°C° 0.5 mm 6 m/s 746 mmHg 84%
    06:00 -3°C° 0.5 mm 6 m/s 747 mmHg 84%
    07:00 -3°C° 0.5 mm 6 m/s 748 mmHg 84%
    08:00 -2°C° 0 mm 5 m/s 750 mmHg 79%
    09:00 -2°C° 0 mm 5 m/s 751 mmHg 75%
    10:00 -2°C° 0 mm 5 m/s 752 mmHg 70%
    11:00 -2°C° 0 mm 5 m/s 753 mmHg 68%
    12:00 -2°C° 0 mm 5 m/s 754 mmHg 66%
    13:00 -1°C° 0 mm 5 m/s 754 mmHg 64%
    14:00 -2°C° 0 mm 4 m/s 755 mmHg 68%
    15:00 -2°C° 0 mm 4 m/s 755 mmHg 72%
    16:00 -1°C° 0 mm 3 m/s 756 mmHg 76%
    17:00 -2°C° 0 mm 3 m/s 756 mmHg 79%
    18:00 -2°C° 0 mm 3 m/s 756 mmHg 83%
    19:00 -2°C° 0 mm 3 m/s 756 mmHg 86%
    20:00 -3°C° 0 mm 4 m/s 757 mmHg 86%
    21:00 -3°C° 0 mm 4 m/s 757 mmHg 86%
    22:00 -3°C° 0 mm 4 m/s 757 mmHg 85%
    23:00 -3°C° 0 mm 4 m/s 757 mmHg 84%

    19 Janeiro, Sábado

    Tempo Temperatura Precipitação Vento Pressão Humidade
    00:00 -3°C° 0 mm 4 m/s 757 mmHg 84%
    01:00 -3°C° 0 mm 4 m/s 757 mmHg 83%
    02:00 -3°C° 0 mm 4 m/s 757 mmHg 85%
    03:00 -3°C° 0 mm 4 m/s 757 mmHg 87%
    04:00 -3°C° 0 mm 4 m/s 757 mmHg 89%
    05:00 -2°C° 0 mm 3 m/s 757 mmHg 91%
    06:00 -2°C° 0 mm 3 m/s 757 mmHg 92%
    07:00 -2°C° 0 mm 3 m/s 757 mmHg 94%
    08:00 -2°C° 0 mm 3 m/s 758 mmHg 93%
    09:00 -1°C° 0 mm 3 m/s 758 mmHg 92%
    10:00 -1°C° 0 mm 3 m/s 758 mmHg 91%
    11:00 0°C° 0 mm 3 m/s 758 mmHg 88%
    12:00 0°C° 0 mm 3 m/s 758 mmHg 86%
    13:00 +1°C° 0 mm 3 m/s 758 mmHg 83%
    14:00 +1°C° 0 mm 2 m/s 758 mmHg 85%
    15:00 +1°C° 0 mm 2 m/s 758 mmHg 87%
    16:00 -1°C° 0 mm 2 m/s 758 mmHg 88%
    17:00 -1°C° 0 mm 2 m/s 758 mmHg 89%
    18:00 -2°C° 0 mm 2 m/s 758 mmHg 89%
    19:00 -2°C° 0 mm 2 m/s 758 mmHg 90%
    20:00 -2°C° 0 mm 2 m/s 758 mmHg 89%
    21:00 -2°C° 0 mm 2 m/s 758 mmHg 89%
    22:00 -2°C° 0 mm 2 m/s 758 mmHg 89%
    23:00 -1°C° 0 mm 2 m/s 759 mmHg 89%

    20 Janeiro, Domingo

    Tempo Temperatura Precipitação Vento Pressão Humidade
    00:00 -1°C° 0 mm 2 m/s 759 mmHg 89%
    01:00 -1°C° 0 mm 2 m/s 759 mmHg 89%
    02:00 -1°C° 0 mm 2 m/s 758 mmHg 88%
    03:00 -1°C° 0 mm 2 m/s 758 mmHg 88%
    04:00 -1°C° 0 mm 2 m/s 758 mmHg 88%
    05:00 -1°C° 0 mm 2 m/s 758 mmHg 89%
    06:00 -1°C° 0 mm 3 m/s 758 mmHg 89%
    07:00 -1°C° 0 mm 3 m/s 758 mmHg 89%
    08:00 -1°C° 0 mm 3 m/s 759 mmHg 88%
    09:00 0°C° 0 mm 3 m/s 759 mmHg 86%
    10:00 0°C° 0 mm 3 m/s 760 mmHg 85%
    11:00 0°C° 0 mm 3 m/s 760 mmHg 80%
    12:00 0°C° 0 mm 4 m/s 760 mmHg 75%
    13:00 0°C° 0 mm 4 m/s 760 mmHg 70%
    14:00 -1°C° 0 mm 4 m/s 760 mmHg 72%
    15:00 -1°C° 0 mm 3 m/s 760 mmHg 74%
    16:00 -2°C° 0 mm 3 m/s 760 mmHg 76%
    17:00 -2°C° 0 mm 3 m/s 761 mmHg 75%
    18:00 -3°C° 0 mm 2 m/s 762 mmHg 74%
    19:00 -3°C° 0 mm 2 m/s 762 mmHg 73%
    20:00 -3°C° 0 mm 2 m/s 763 mmHg 72%
    21:00 -3°C° 0 mm 2 m/s 763 mmHg 71%
    22:00 -3°C° 0 mm 2 m/s 764 mmHg 70%
    23:00 -3°C° 0 mm 2 m/s 764 mmHg 70%

    21 Janeiro, Segunda-feira

    Tempo Temperatura Precipitação Vento Pressão Humidade
    00:00 -1°C° 0 mm 1 m/s 765 mmHg 70%
    01:00 -1°C° 0 mm 1 m/s 765 mmHg 70%
    02:00 -1°C° 0 mm 1 m/s 765 mmHg 70%
    03:00 -1°C° 0 mm 1 m/s 765 mmHg 70%
    04:00 -1°C° 0 mm 1 m/s 766 mmHg 70%
    05:00 -1°C° 0 mm 1 m/s 766 mmHg 70%
    06:00 -1°C° 0 mm 1 m/s 766 mmHg 70%
    07:00 -1°C° 0 mm 1 m/s 766 mmHg 70%
    08:00 -1°C° 0 mm 1 m/s 767 mmHg 69%
    09:00 -1°C° 0 mm 1 m/s 767 mmHg 67%
    10:00 0°C° 0 mm 1 m/s 767 mmHg 66%
    11:00 -2°C° 0 mm 2 m/s 767 mmHg 63%
    12:00 -1°C° 0 mm 2 m/s 767 mmHg 61%
    13:00 -1°C° 0 mm 2 m/s 767 mmHg 59%
    14:00 -1°C° 0 mm 2 m/s 767 mmHg 63%
    15:00 -2°C° 0 mm 2 m/s 767 mmHg 66%
    16:00 -2°C° 0 mm 2 m/s 767 mmHg 70%
    17:00 -3°C° 0 mm 2 m/s 767 mmHg 71%
    18:00 -4°C° 0 mm 3 m/s 766 mmHg 72%
    19:00 -4°C° 0 mm 3 m/s 766 mmHg 73%
    20:00 -4°C° 0 mm 3 m/s 766 mmHg 72%
    21:00 -5°C° 0 mm 3 m/s 766 mmHg 70%
    22:00 -5°C° 0 mm 3 m/s 766 mmHg 69%
    23:00 -5°C° 0 mm 3 m/s 765 mmHg 68%
    Mostrar mais